Total_Precipitation_Accumulation
3.12 3.21 3.15 3.10 2.88 2.87 2.88 2.78 2.60 2.64 2.54 2.26 1.99 1.97 2.05 2.01 2.11 2.38 2.47 2.63 2.68 3.04 3.59 3.89 3.89 3.89 4.08 4.13 3.88 3.71 3.54 3.38 3.22 2.85 2.49 2.24 2.13 2.06 1.93 1.87 1.84 1.78 1.83
3.37 3.42 3.39 3.35 3.28 3.19 3.22 3.02 2.84 3.01 2.87 2.73 2.50 2.36 2.26 2.34 2.33 2.42 2.62 2.80 2.73 2.76 3.15 3.56 3.81 4.01 4.30 4.36 4.15 3.73 3.49 3.49 3.58 3.33 2.98 2.66 2.41 2.29 2.16 2.05 1.95 1.88 1.86
3.38 3.51 3.66 3.60 3.60 3.53 3.53 3.44 3.37 3.45 3.14 2.94 2.74 2.60 2.56 2.66 2.63 2.57 2.71 2.88 2.82 2.89 2.94 3.02 3.22 3.48 3.85 4.16 4.28 4.12 3.74 3.53 3.58 3.57 3.40 3.12 2.80 2.60 2.47 2.31 2.22 2.17 2.12
3.42 3.75 3.85 3.88 3.95 3.87 3.94 3.99 3.87 3.72 3.60 3.35 3.10 2.76 2.65 2.83 2.83 2.80 2.80 2.84 3.03 2.97 2.99 2.86 2.88 2.98 3.31 3.80 4.04 4.28 4.28 4.10 3.82 3.61 3.50 3.34 3.15 2.92 2.71 2.48 2.38 2.37 2.33
3.94 4.10 4.18 4.26 4.32 4.36 4.38 4.17 4.32 4.10 4.02 3.84 3.37 3.08 2.80 2.72 2.74 2.65 2.76 2.69 2.81 2.91 3.04 2.98 2.90 2.90 3.12 3.64 3.87 4.15 4.38 4.41 4.30 3.98 3.71 3.50 3.42 3.27 3.05 2.85 2.67 2.54 2.46
4.63 4.76 4.64 4.68 4.75 4.84 4.70 4.68 4.76 4.53 4.22 4.16 3.66 3.37 3.11 2.82 2.79 2.77 2.75 2.83 2.75 2.58 2.79 2.97 3.10 2.90 3.09 3.29 3.52 3.85 4.18 4.45 4.50 4.32 4.20 4.07 3.85 3.60 3.23 2.91 2.68 2.55 2.48
5.63 5.68 5.37 5.36 5.29 5.15 4.92 4.89 4.78 4.54 4.26 4.23 4.13 3.69 3.09 2.70 2.63 2.51 2.53 2.72 2.72 2.61 2.70 2.86 2.92 2.82 2.70 2.81 2.93 3.26 3.74 4.25 4.61 4.58 4.41 4.22 3.94 3.71 3.44 3.13 2.87 2.72 2.59
6.47 6.52 6.47 6.20 5.99 5.70 5.21 4.87 4.74 4.48 4.08 4.21 4.28 4.26 3.55 3.06 2.55 2.10 2.19 2.24 2.31 2.57 2.54 2.51 2.68 2.80 2.67 2.69 2.48 2.68 3.00 3.50 4.09 4.43 4.47 4.22 4.01 3.84 3.63 3.42 3.21 3.03 2.83
6.52 6.70 6.68 6.44 6.08 5.51 4.94 4.80 4.78 4.61 4.32 4.23 4.18 4.43 3.86 3.30 2.86 2.35 2.05 1.96 2.09 2.25 2.28 2.30 2.36 2.47 2.45 2.55 2.50 2.52 2.66 2.86 3.41 3.95 4.11 3.86 3.68 3.57 3.55 3.46 3.38 3.25 3.11
6.29 6.21 6.05 5.63 5.25 4.88 4.58 4.43 4.49 4.39 4.38 4.17 4.09 3.82 3.57 3.27 3.04 2.66 2.19 1.97 2.03 2.10 2.11 2.05 2.09 2.31 2.41 2.46 2.48 2.39 2.33 2.45 2.85 3.33 3.63 3.61 3.46 3.37 3.41 3.40 3.36 3.37 3.38
5.49 5.06 4.73 4.51 4.42 4.25 4.05 3.91 3.91 3.82 3.63 3.54 3.56 3.53 3.50 3.23 2.91 2.75 2.46 2.25 2.21 2.01 1.98 2.07 2.13 2.27 2.44 2.48 2.51 2.44 2.33 2.19 2.34 2.61 2.90 3.06 3.21 3.25 3.33 3.49 3.55 3.54 3.54
4.64 4.09 3.83 3.69 3.60 3.42 3.19 3.08 3.08 3.09 3.17 3.22 3.32 3.33 3.30 3.23 3.03 3.01 2.82 2.55 2.41 2.24 2.14 2.12 2.14 2.27 2.48 2.60 2.52 2.70 2.36 2.16 2.14 2.24 2.38 2.52 2.74 2.85 2.99 3.18 3.45 3.59 3.69
4.20 3.71 3.30 3.11 2.88 2.71 2.62 2.65 2.63 2.60 2.74 2.85 2.95 3.03 3.03 2.94 2.86 2.93 3.05 2.82 2.54 2.36 2.28 2.18 2.15 2.28 2.33 2.57 2.78 2.87 2.45 2.26 2.10 2.01 2.08 2.21 2.37 2.48 2.54 2.59 2.86 3.12 3.35
3.57 3.29 2.88 2.57 2.34 2.23 2.16 2.28 2.30 2.30 2.40 2.52 2.60 2.81 2.78 2.67 2.75 2.82 2.98 3.10 3.00 2.64 2.35 2.22 2.22 2.26 2.28 2.36 2.63 2.74 2.35 2.33 2.05 1.93 1.93 2.05 2.17 2.28 2.34 2.34 2.51 2.73 2.85
2.70 2.57 2.38 2.20 2.09 2.04 2.05 2.11 2.08 2.11 2.27 2.37 2.39 2.53 2.65 2.61 2.64 2.67 2.78 2.90 3.00 2.82 2.52 2.34 2.27 2.23 2.27 2.33 2.54 2.15 2.09 2.28 2.11 1.97 1.87 1.83 1.85 1.99 2.09 2.08 2.06 2.12 2.20
2.03 2.04 1.99 1.99 1.96 1.90 1.94 2.00 1.91 1.92 2.06 2.10 2.09 2.20 2.30 2.32 2.42 2.47 2.57 2.69 2.76 2.72 2.55 2.28 2.22 2.21 2.19 2.03 2.23 1.96 2.00 2.18 2.00 1.89 1.79 1.75 1.72 1.77 1.84 1.90 1.89 1.86 1.85
1.71 1.72 1.75 1.78 1.81 1.79 1.82 1.81 1.70 1.72 1.80 1.95 2.05 2.11 2.17 2.18 2.26 2.23 2.25 2.30 2.42 2.59 2.70 2.54 2.36 2.28 2.29 2.20 2.06 1.86 1.75 1.76 1.70 1.80 1.77 1.74 1.67 1.64 1.70 1.70 1.65 1.62 1.59
1.62 1.63 1.63 1.61 1.67 1.77 1.83 1.75 1.62 1.59 1.69 1.82 1.95 2.10 2.08 2.01 2.04 2.08 2.13 2.12 2.16 2.33 2.49 2.48 2.33 2.18 2.18 2.17 2.11 2.01 1.68 1.53 1.51 1.56 1.51 1.46 1.48 1.48 1.46 1.49 1.48 1.45 1.42
1.63 1.58 1.51 1.51 1.58 1.63 1.66 1.62 1.54 1.52 1.56 1.63 1.72 1.76 1.82 1.85 1.80 1.79 1.83 1.89 1.89 1.92 2.14 2.20 2.14 2.07 2.01 1.97 2.05 2.00 1.81 1.81 1.46 1.39 1.32 1.25 1.22 1.22 1.20 1.20 1.24 1.31 1.32
1.55 1.59 1.55 1.49 1.47 1.40 1.32 1.28 1.28 1.33 1.37 1.36 1.40 1.40 1.49 1.61 1.65 1.68 1.61 1.68 1.74 1.88 1.97 2.04 1.98 1.93 1.93 1.83 1.90 1.93 1.88 1.75 1.55 1.29 1.30 1.17 1.09 1.02 1.00 1.01 1.02 1.05 1.11
1.35 1.42 1.46 1.38 1.25 1.11 0.97 0.98 1.04 1.08 1.16 1.19 1.21 1.15 1.13 1.34 1.49 1.45 1.31 1.45 1.64 1.81 1.88 1.90 1.83 1.74 1.68 1.78 1.77 1.72 1.74 1.73 1.63 1.45 1.47 1.27 1.17 1.09 1.09 1.07 1.01 0.98 1.01
1.49 1.40 1.37 1.28 1.17 0.94 0.93 0.89 0.98 1.13 1.21 1.18 1.21 1.19 1.08 1.14 1.23 1.18 1.11 1.24 1.47 1.55 1.65 1.79 1.81 1.73 1.67 1.71 1.75 1.73 1.78 1.84 1.82 1.59 1.62 1.49 1.35 1.34 1.23 1.13 1.08 0.99 0.98
1.59 1.51 1.37 1.33 1.28 1.17 1.03 0.89 0.91 1.04 1.15 1.16 1.16 1.18 1.02 0.95 1.12 1.16 1.15 1.14 1.22 1.25 1.36 1.62 1.79 1.71 1.70 1.79 1.90 1.85 1.96 1.97 1.85 1.75 1.87 1.78 1.50 1.38 1.12 1.03 1.10 0.99 0.97
1.56 1.52 1.43 1.32 1.22 1.01 0.86 0.75 0.79 0.91 1.10 1.15 1.14 1.18 1.20 1.12 1.05 1.11 1.12 1.13 1.19 1.23 1.20 1.26 1.51 1.60 1.62 1.76 1.90 1.96 2.07 2.02 1.90 1.83 1.95 1.98 1.62 1.48 1.21 1.20 1.13 0.97 0.93
1.46 1.40 1.31 1.24 1.17 1.01 0.81 0.68 0.73 0.90 1.10 1.12 1.10 1.09 1.15 1.15 1.10 1.04 1.10 1.21 1.27 1.30 1.12 1.13 1.22 1.34 1.41 1.55 1.67 1.79 2.05 2.21 2.06 1.80 1.78 1.93 1.70 1.60 1.45 1.35 1.19 1.06 0.95
1.34 1.25 1.16 1.17 1.15 1.11 0.97 0.81 0.80 0.88 1.03 1.07 1.11 1.10 1.03 1.05 1.07 1.01 1.08 1.22 1.28 1.28 1.19 1.17 1.32 1.42 1.40 1.51 1.60 1.73 2.02 2.11 1.99 1.89 1.67 1.77 1.72 1.76 1.76 1.44 1.29 1.22 1.11